Location: Kumla
(59.1265°N, 15.1401°E)
Time: 16:07:12
(UTC+01:00)

A-11 Canister half - Pass Details

Date: 04 December 2023
Orbit: 1526 x 1682 km, 47.3° (Epoch: 24 February)

Event Time Altitude Azimuth Distance (km) Brightness Sun altitude
Enters shadow 23:36:14 - 268° (W) 4,937 11.7 -53.1°
Rises 23:36:16 0° 268° (W) 4,926 - -53.1°
Reaches altitude 10° 23:39:46 10° 261° (W) 3,926 - -53.1°
Maximum altitude 23:48:33 37° 200° (SSW) 2,372 - -53.2°
Drops below altitude 10° 23:57:08 10° 138° (SE) 3,823 - -53.1°
Sets 00:00:29 0° 130° (SE) 4,784 - -53.1°
